Waarnemingen

Advertentie
Mijn weer
Auch, Frankrijk (7622): temperatuur & dauwpunt: 16.11.2017 08:00:00 - 22.11.2017 08:00:00 (CET)Auch, Frankrijk (7622): temperatuur 5cm: 16.11.2017 08:00:00 - 22.11.2017 08:00:00 (CET)Auch, Frankrijk (7622): temperatuur -20cm & temperatuur -100cm: 16.11.2017 08:00:00 - 22.11.2017 08:00:00 (CET)Auch, Frankrijk (7622): windsnelheid & windstoten: 16.11.2017 08:00:00 - 22.11.2017 08:00:00 (CET)Auch, Frankrijk (7622): windrichting: 16.11.2017 08:00:00 - 22.11.2017 08:00:00 (CET)Auch, Frankrijk (7622): luchtdruk: 16.11.2017 08:00:00 - 22.11.2017 08:00:00 (CET)Auch, Frankrijk (7622): zicht: 16.11.2017 08:00:00 - 22.11.2017 08:00:00 (CET)Auch, Frankrijk (7622): Zonneschijnduur: 16.11.2017 08:00:00 - 22.11.2017 08:00:00 (CET)Auch, Frankrijk (7622): neerslag: 16.11.2017 08:00:00 - 22.11.2017 08:00:00 (CET)
Datum & Tijd tt [°C] td [°C] tt 5cm [°C] tt -20cm [°C] tt -100cm [°C] ff [km/u] ff [kn] fx [km/u] fx [kn] dd ppp [hPa] vv [km] sd [min] rr [mm]
22.11.2017 08:00:00 -1,7 -1,7 -5,4 7,8 13,0 0 0 4 2 N 1015,6 7 0 0,0
22.11.2017 07:00:00 -1,5 -1,5 -5,3 8,0 13,0 0 0 3 2 N 1015,8 3,2 0 0,0
22.11.2017 06:00:00 -1,3 -1,3 -4,9 8,1 13,0 0 0 0 0 N 1016,1 4,1 0 0,0
22.11.2017 05:00:00 -0,8 -0,8 -4,2 8,2 13,0 0 0 10 5 N 1016,4 7 0 0,0
22.11.2017 04:00:00 -0,3 -0,3 -4,3 8,4 13,0 0 0 3 1 N 1016,7 1,5 0 0,0
22.11.2017 03:00:00 0,2 0,2 -4,0 8,5 13,0 0 0 2 1 N 1017,4 4,8 0 0,0
22.11.2017 02:00:00 0,7 0,7 -3,3 8,6 13,0 0 0 6 3 N 1017,7 7 0 0,0
22.11.2017 01:00:00 0,9 0,9 -3,0 8,7 13,0 0 0 5 3 N 1018,2 8 0 0,0
22.11.2017 00:00:00 1,0 1,0 -2,8 8,8 13,0 3 1 4 2 ZZW 1018,7 1,8 0 0,0
21.11.2017 23:00:00 2,1 2,1 -2,4 8,9 13,0 0 0 3 2 N 1018,8 1,6 0 0,0
21.11.2017 22:00:00 2,9 2,8 -1,4 8,9 13,0 0 0 4 2 N 1018,6 10 0 0,0
21.11.2017 21:00:00 3,2 2,9 -0,8 9,0 13,0 3 2 6 3 ZZW 1018,9 6 0 0,0
21.11.2017 20:00:00 5,0 4,3 0,4 8,9 13,0 0 0 3 2 N 1019,2 17 0 0,0
21.11.2017 19:00:00 6,8 5,4 1,0 8,9 13,0 3 1 4 2 Z 1019,3 20 0 0,0
21.11.2017 18:00:00 10,2 6,5 3,9 8,7 13,0 0 0 4 2 N 1019,1 20 2 0,0
21.11.2017 17:00:00 15,5 7,5 15,7 8,6 13,0 4 2 7 4 N 1018,7 20 60 0,0
21.11.2017 16:00:00 17,2 7,3 20,8 8,4 13,0 4 2 6 3 NNO 1019,0 20 60 0,0
21.11.2017 15:00:00 17,2 7,0 21,0 8,2 13,0 0 0 8 4 N 1019,3 20 60 0,0
21.11.2017 14:00:00 15,8 7,8 18,6 8,1 13,0 3 2 8 4 N 1020,1 20 60 0,0
21.11.2017 13:00:00 12,9 7,6 15,0 8,0 13,0 3 2 9 5 N 1021,1 20 60 0,0
21.11.2017 12:00:00 9,1 8,8 12,6 8,0 13,1 3 2 8 4 NNW 1022,1 20 60 0,0
21.11.2017 11:00:00 5,7 5,7 6,7 8,0 13,1 2 1 4 2 N 1022,9 19 60 0,0
21.11.2017 10:00:00 3,1 3,1 1,1 8,0 13,1 0 0 2 1 N 1023,0 16 54 0,0
21.11.2017 09:00:00 -0,1 -0,1 -0,5 8,1 13,1 0 0 0 0 N 1023,0 1,0 11 0,0
21.11.2017 08:00:00 -0,2 -0,2 -0,7 8,1 13,1 0 0 3 2 N 1022,5 0,2 0 0,0
21.11.2017 07:00:00 0,2 0,2 0,2 8,2 13,1 0 0 3 1 N 1022,3 0,2 0 0,0
21.11.2017 06:00:00 0,7 0,7 0,4 8,2 13,1 0 0 4 2 N 1022,4 0,1 0 0,0
21.11.2017 05:00:00 1,1 1,1 0,3 8,3 13,2 0 0 8 5 N 1022,4 0,3 0 0,0
21.11.2017 04:00:00 1,7 1,7 1,6 8,3 13,2 0 0 4 2 N 1022,4 0,2 0 0,0
21.11.2017 03:00:00 2,6 2,6 2,7 8,2 13,1 0 0 4 2 N 1023,0 0,2 0 0,0
21.11.2017 02:00:00 3,1 3,1 3,1 8,3 13,2 4 2 6 3 Z 1022,8 0,3 0 0,0
21.11.2017 01:00:00 3,7 3,7 3,7 8,2 13,2 0 0 8 4 N 1023,3 0,2 0 0,0
21.11.2017 00:00:00 4,3 4,3 4,3 8,2 13,2 3 2 7 4 ZZO 1023,4 0,2 0 0,0
20.11.2017 23:00:00 4,9 4,9 4,9 8,2 13,2 0 0 7 4 N 1023,4 0,3 0 0,0
20.11.2017 22:00:00 5,1 5,1 5,2 8,2 13,2 2 1 6 3 O 1023,8 0,2 0 0,0
20.11.2017 21:00:00 5,2 5,2 5,3 8,1 13,2 3 2 8 4 ONO 1024,0 0,3 0 0,0
20.11.2017 20:00:00 5,8 5,7 5,8 8,1 13,2 4 2 9 5 OZO 1023,9 0,5 0 0,0
20.11.2017 19:00:00 6,4 6,1 6,3 8,0 13,2 3 2 9 5 ONO 1023,7 2,5 0 0,0
20.11.2017 18:00:00 7,1 6,5 7,0 7,9 13,2 4 2 10 5 NO 1023,7 7 0 0,0
20.11.2017 17:00:00 7,9 6,5 8,1 7,7 13,2 4 2 12 6 ONO 1023,5 15 6 0,0
20.11.2017 16:00:00 8,3 6,4 8,9 7,6 13,3 9 5 13 7 OZO 1023,8 20 5 0,0
20.11.2017 15:00:00 8,6 7,1 9,5 7,5 13,3 5 3 11 6 O 1024,1 19 0 0,0
20.11.2017 14:00:00 8,0 7,1 9,0 7,3 13,3 6 3 14 8 NO 1024,9 15 0 0,0
20.11.2017 13:00:00 7,6 7,2 8,8 7,2 13,3 6 4 17 9 ONO 1025,7 17 0 0,0
20.11.2017 12:00:00 7,5 7,1 8,8 7,1 13,3 8 4 17 9 OZO 1026,2 18 0 0,0
20.11.2017 11:00:00 7,5 7,4 7,6 7,1 13,3 6 3 11 6 OZO 1026,3 18 0 0,0
20.11.2017 10:00:00 5,7 5,7 5,5 7,1 13,3 0 0 7 4 N 1026,2 9 43 0,0
20.11.2017 09:00:00 3,7 3,7 2,8 7,1 13,3 0 0 4 2 N 1026,3 10 27 0,0
20.11.2017 08:00:00 2,3 2,3 1,7 7,2 13,3 0 0 3 1 N 1026,2 8 0 0,0
20.11.2017 07:00:00 1,2 1,2 0,5 7,3 13,3 0 0 6 3 N 1026,3 10 0 0,0
20.11.2017 06:00:00 0,2 0,2 -0,5 7,4 13,3 0 0 5 3 N 1026,4 9 0 0,0
20.11.2017 05:00:00 -0,7 -0,7 -4,1 7,5 13,3 0 0 2 1 N 1026,2 8 0 0,0
20.11.2017 04:00:00 -1,0 -1,0 -4,2 7,6 13,4 2 1 8 5 ZZW 1026,4 6 0 0,0
20.11.2017 03:00:00 -1,4 -1,4 -4,4 7,7 13,4 3 1 4 2 Z 1026,8 4,8 0 0,0
20.11.2017 02:00:00 -1,4 -1,4 -4,3 7,9 13,4 2 1 3 2 Z 1027,2 2,7 0 0,0
20.11.2017 01:00:00 -1,0 -1,0 -4,3 7,9 13,4 0 0 3 2 N 1027,8 3,5 0 0,0
20.11.2017 00:00:00 -1,0 -1,0 -4,5 8,0 13,4 0 0 4 2 N 1027,7 3,3 0 0,0
19.11.2017 23:00:00 -0,3 -0,4 -4,3 8,1 13,4 2 1 3 2 Z 1027,7 1,9 0 0,0
19.11.2017 22:00:00 0,0 -0,3 -3,8 8,2 13,4 3 1 4 2 ZZW 1027,6 6 0 0,0
19.11.2017 21:00:00 1,3 0,9 -2,6 8,2 13,4 0 0 3 2 N 1027,4 9 0 0,0
19.11.2017 20:00:00 1,7 1,1 -1,9 8,2 13,4 3 2 5 3 ZZW 1026,9 10 0 0,0
19.11.2017 19:00:00 3,3 1,7 -1,0 8,2 13,4 3 2 4 2 Z 1026,6 17 0 0,0
19.11.2017 18:00:00 6,5 3,3 1,1 8,1 13,4 0 0 11 6 N 1026,1 20 4 0,0
19.11.2017 17:00:00 9,3 4,3 10,3 8,0 13,4 6 3 12 6 N 1025,6 20 60 0,0
19.11.2017 16:00:00 10,0 4,1 12,9 7,8 13,4 5 3 13 7 NNO 1025,3 20 60 0,0
19.11.2017 15:00:00 10,1 4,0 13,9 7,7 13,4 8 4 14 7 N 1025,6 20 60 0,0
19.11.2017 14:00:00 9,6 4,6 13,2 7,5 13,4 9 5 16 8 N 1026,2 19 60 0,0
19.11.2017 13:00:00 8,1 7,7 10,5 7,5 13,5 9 5 14 8 NNO 1026,6 18 60 0,0
19.11.2017 12:00:00 5,3 5,3 7,1 7,4 13,5 6 3 11 6 N 1027,1 10 60 0,0
19.11.2017 11:00:00 3,1 3,1 5,7 7,5 13,5 9 5 12 7 N 1027,3 1,5 60 0,0
19.11.2017 10:00:00 1,9 1,9 0,0 7,5 13,5 6 3 9 5 Z 1026,9 7 60 0,0
19.11.2017 09:00:00 -0,3 -0,3 -0,8 7,6 13,5 6 3 9 5 Z 1026,9 0,4 9 0,0
19.11.2017 08:00:00 -0,7 -0,7 -1,0 7,7 13,5 7 4 16 8 Z 1026,5 0,4 0 0,0
19.11.2017 07:00:00 -0,8 -0,8 -1,0 7,8 13,5 11 6 15 8 Z 1026,1 0,3 0 0,0
19.11.2017 06:00:00 -0,6 -0,6 -0,9 7,9 13,5 10 5 14 8 Z 1026,0 0,4 0 0,0
19.11.2017 05:00:00 -0,8 -0,8 -1,9 8,0 13,5 11 6 14 8 Z 1025,7 0,3 0 0,0
19.11.2017 04:00:00 -1,0 -1,0 -4,9 8,1 13,5 10 5 12 7 ZZW 1025,8 2,1 0 0,0
19.11.2017 03:00:00 -1,2 -1,2 -5,1 8,3 13,6 3 2 4 2 Z 1025,9 0,7 0 0,0
19.11.2017 02:00:00 -0,9 -0,9 -4,5 8,4 13,5 0 0 6 3 N 1025,9 2,4 0 0,0
19.11.2017 01:00:00 0,4 0,4 -1,4 8,5 13,6 5 3 13 7 ZZW 1025,9 5 0 0,0
19.11.2017 00:00:00 0,8 0,8 -0,7 8,6 13,6 10 6 13 7 ZZW 1026,0 6 0 0,0
18.11.2017 23:00:00 1,3 1,3 -0,6 8,7 13,6 7 4 11 6 ZZW 1026,0 6 0 0,0
18.11.2017 22:00:00 1,3 1,3 -3,1 8,8 13,6 9 5 11 6 ZZW 1025,9 7 0 0,0
18.11.2017 21:00:00 1,8 1,5 -2,5 8,8 13,6 0 0 3 2 N 1025,9 1,3 0 0,0
18.11.2017 20:00:00 1,9 1,5 -2,4 8,8 13,6 3 1 7 4 Z 1025,7 10 0 0,0
18.11.2017 19:00:00 3,4 2,4 -1,5 8,8 13,6 0 0 4 2 N 1025,7 16 0 0,0
18.11.2017 18:00:00 5,6 3,3 0,1 8,7 13,6 3 2 6 4 ZZW 1025,3 20 5 0,0
18.11.2017 17:00:00 9,1 4,9 10,3 8,6 13,6 5 3 8 5 N 1025,0 20 60 0,0
18.11.2017 16:00:00 10,2 5,6 13,6 8,4 13,6 5 3 9 5 NNW 1024,5 20 60 0,0
18.11.2017 15:00:00 9,5 6,2 11,6 8,3 13,6 6 3 10 5 N 1024,5 16 50 0,0
18.11.2017 14:00:00 8,6 7,1 9,8 8,1 13,7 0 0 12 6 N 1024,8 16 1 0,0
18.11.2017 13:00:00 8,1 7,8 9,6 8,0 13,7 8 4 12 7 NW 1025,2 15 0 0,0
18.11.2017 12:00:00 8,0 8,0 8,9 8,0 13,7 4 2 11 6 W 1025,6 18 0 0,0
18.11.2017 11:00:00 7,4 7,4 7,8 8,0 13,7 6 3 10 6 NNW 1025,7 12 0 0,0
18.11.2017 10:00:00 7,1 7,1 7,0 7,9 13,7 4 2 11 6 NW 1025,5 3,7 0 0,0
18.11.2017 09:00:00 6,9 6,9 6,4 7,9 13,7 6 3 14 7 W 1025,0 4,3 0 0,0
18.11.2017 08:00:00 6,2 6,2 5,2 7,9 13,7 0 0 8 4 N 1024,5 1,9 0 0,0
18.11.2017 07:00:00 5,1 5,1 3,8 8,0 13,7 5 3 10 5 Z 1024,3 0,3 0 0,0
18.11.2017 06:00:00 3,6 3,6 2,2 8,1 13,8 4 2 10 6 Z 1024,4 0,2 0 0,0
18.11.2017 05:00:00 2,1 2,1 0,3 8,1 13,8 10 5 13 7 Z 1024,5 7 0 0,0
18.11.2017 04:00:00 1,9 1,9 0,6 8,2 13,8 9 5 16 9 Z 1024,5 7 0 0,0
18.11.2017 03:00:00 2,1 2,1 1,0 8,3 13,8 12 6 16 8 Z 1024,1 6 0 0,0
18.11.2017 02:00:00 2,3 2,3 0,5 8,4 13,8 11 6 14 7 Z 1023,9 6 0 0,0
18.11.2017 01:00:00 2,8 2,7 1,1 8,4 13,8 7 4 13 7 ZZW 1024,1 6 0 0,0
18.11.2017 00:00:00 3,4 3,1 2,0 8,5 13,8 9 5 15 8 Z 1024,2 8 0 0,0
17.11.2017 23:00:00 3,9 3,5 2,8 8,5 13,8 12 6 15 8 Z 1024,1 9 0 0,0
17.11.2017 22:00:00 4,3 3,9 2,4 8,5 13,8 10 5 12 6 Z 1024,1 11 0 0,0
17.11.2017 21:00:00 5,0 4,4 0,3 8,5 13,8 10 5 12 6 Z 1023,9 13 0 0,0
17.11.2017 20:00:00 5,1 3,8 0,7 8,5 13,9 4 2 6 4 Z 1023,9 18 0 0,0
17.11.2017 19:00:00 6,2 4,4 1,6 8,4 13,9 3 2 5 3 ZZW 1023,5 20 0 0,0
17.11.2017 18:00:00 8,7 4,9 2,8 8,3 13,9 3 2 7 4 ZZW 1022,9 20 6 0,0
17.11.2017 17:00:00 13,6 5,0 12,9 8,1 13,9 5 3 13 7 NW 1022,4 20 60 0,0
17.11.2017 16:00:00 14,8 5,0 16,7 7,9 13,9 8 4 13 7 NW 1022,2 20 60 0,0
17.11.2017 15:00:00 15,1 5,6 18,3 7,7 13,9 6 4 12 6 NW 1022,2 20 60 0,0
17.11.2017 14:00:00 14,6 5,7 18,0 7,5 13,9 8 5 16 8 NNW 1022,5 20 60 0,0
17.11.2017 13:00:00 13,4 5,8 16,2 7,4 13,9 6 3 11 6 N 1023,1 20 60 0,0
17.11.2017 12:00:00 11,3 6,2 13,2 7,4 13,9 4 2 7 4 NO 1023,8 19 60 0,0
17.11.2017 11:00:00 8,6 5,9 8,1 7,4 14,0 6 3 12 7 Z 1024,2 20 58 0,0
17.11.2017 10:00:00 4,7 4,7 2,6 7,5 14,0 9 5 13 7 Z 1024,7 20 47 0,0
17.11.2017 09:00:00 1,5 1,5 -0,3 7,6 14,0 9 5 12 7 Z 1025,0 15 40 0,0
17.11.2017 08:00:00 0,1 0,1 -1,8 7,7 14,0 8 4 14 8 ZZW 1024,8 12 0 0,0
17.11.2017 07:00:00 -0,2 -0,2 -3,7 7,8 14,1 8 4 11 6 ZZW 1024,6 10 0 0,0
17.11.2017 06:00:00 -0,7 -0,7 -3,7 7,9 14,0 0 0 6 3 N 1024,4 4,6 0 0,0
17.11.2017 05:00:00 -0,7 -0,7 -3,9 8,0 14,1 0 0 6 3 N 1024,1 6 0 0,0
17.11.2017 04:00:00 -0,3 -0,3 -3,9 8,1 14,1 3 1 4 2 Z 1024,4 2,4 0 0,0
17.11.2017 03:00:00 0,1 0,1 -3,6 8,2 14,1 3 1 7 4 Z 1024,4 4,3 0 0,0
17.11.2017 02:00:00 0,2 0,2 -3,4 8,3 14,1 4 2 5 3 Z 1024,2 1,7 0 0,0
17.11.2017 01:00:00 0,9 0,9 -2,8 8,4 14,1 2 1 5 3 ZZW 1024,4 3,9 0 0,0
17.11.2017 00:00:00 1,8 1,8 -2,6 8,4 14,1 5 3 9 5 ZZW 1024,4 4,4 0 0,0
16.11.2017 23:00:00 1,2 1,1 -2,4 8,5 14,1 3 2 5 3 ZZW 1024,4 2,4 0 0,0
16.11.2017 22:00:00 2,1 2,0 -2,2 8,5 14,1 2 1 3 2 Z 1024,6 1,5 0 0,0
16.11.2017 21:00:00 2,5 2,2 -1,2 8,5 14,2 0 0 8 4 N 1024,5 4,7 0 0,0
16.11.2017 20:00:00 3,8 3,2 -0,5 8,5 14,2 3 1 3 2 Z 1024,2 3,0 0 0,0
16.11.2017 19:00:00 5,2 3,8 0,8 8,5 14,2 0 0 5 3 N 1023,8 13 0 0,0
16.11.2017 18:00:00 7,1 4,7 1,8 8,4 14,2 3 1 6 3 ZZW 1023,0 12 7 0,0
16.11.2017 17:00:00 9,8 5,6 9,2 8,2 14,2 7 4 11 6 N 1022,6 20 46 0,0
16.11.2017 16:00:00 11,0 6,1 13,2 8,0 14,2 9 5 14 8 N 1022,1 20 60 0,0
16.11.2017 15:00:00 10,8 6,2 13,3 7,8 14,2 8 4 14 8 NNO 1021,7 18 56 0,0
16.11.2017 14:00:00 10,9 6,0 14,9 7,7 14,2 9 5 14 8 NNO 1021,9 17 60 0,0
16.11.2017 13:00:00 10,5 5,9 14,1 7,6 14,2 6 3 10 5 NNO 1022,3 18 60 0,0
16.11.2017 12:00:00 8,9 4,3 11,1 7,6 14,2 3 1 9 5 NNO 1023,0 19 60 0,0
16.11.2017 11:00:00 6,6 5,1 6,4 7,7 14,3 5 3 8 4 Z 1023,3 19 60 0,0
16.11.2017 10:00:00 2,6 2,6 1,8 7,8 14,3 6 3 8 4 Z 1023,2 13 57 0,0
16.11.2017 09:00:00 0,1 0,1 -4,7 7,9 14,3 0 0 2 1 N 1023,3 9 35 0,0
16.11.2017 08:00:00 -2,2 -2,2 -5,3 8,0 14,3 3 1 5 3 Z 1022,5 8 0 0,0

tt = temperatuur
td = dauwpunt
tt 5cm = temperatuur 5cm
tt -20cm = temperatuur -20cm
tt -100cm = temperatuur -100cm
ff = windsnelheid
fx = windstoten
dd = windrichting
ppp = luchtdruk
vv = zicht
sd = Zonneschijnduur
rr = neerslag

Weerstations in de omgeving